Overview Statistics Trail Chart Weather Telemetry Raw packets
 

This is the latest recevied weather packets stored in our database for station/object W6MAF. If no packets are shown the sender has not sent any weather packets the latest 10 day(s).

<< 72 73 74 75 76 77 78 >>
Time Temp. Humidity Pressure Rain* Wind** Luminosity Snow
1788147736 23.33° C 17% - 0 mm 3.13 m/s, 156° - -
1788147438 23.89° C 14% - 0 mm 4.02 m/s, 173° - -
1788147137 23.89° C 14% - 0 mm 4.02 m/s, 195° - -
1788146839 23.89° C 14% - 0 mm 4.92 m/s, 181° - -
1788146541 24.44° C 14% - 0 mm 5.81 m/s, 190° - -
1788146244 24.44° C 13% - 0 mm 5.36 m/s, 186° - -
1788145946 24.44° C 13% - 0 mm 5.81 m/s, 176° - -
1788145648 24.44° C 12% - 0 mm 7.6 m/s, 184° - -
1788145347 24.44° C 12% - 0 mm 5.36 m/s, 197° - -
1788144752 25° C 9% - 0 mm 4.02 m/s, 191° - -
1788144454 25° C 8% - 0 mm 4.92 m/s, 191° - -
1788143859 25° C 9% - 0 mm 4.92 m/s, 190° - -
1788143558 25° C 8% - 0 mm 4.92 m/s, 204° - -
1788143260 25.56° C 8% - 0 mm 4.92 m/s, 201° - -
1788142962 25.56° C 7% - 0 mm 7.15 m/s, 207° - -
1788142665 25.56° C 6% - 0 mm 6.71 m/s, 208° - -
1788142367 26.11° C 6% - 0 mm 4.47 m/s, 204° - -
1788142069 26.11° C 6% - 0 mm 7.6 m/s, 215° - -
1788141768 26.11° C 6% - 0 mm 7.15 m/s, 214° - -
1788141470 26.11° C 6% - 0 mm 6.26 m/s, 203° - -
1788141173 26.67° C 6% - 0 mm 7.15 m/s, 183° - -
1788140875 26.67° C 6% - 0 mm 6.26 m/s, 204° - -
1788140577 26.67° C 6% - 0 mm 6.71 m/s, 197° - -
1788140280 26.67° C 6% - 0 mm 8.05 m/s, 222° - -
1788139979 26.67° C 6% - 0 mm 8.05 m/s, 198° - -

* Rain latest hour (hover to see other rain measurements)
** Current wind speed in m/s (hover to see current wind gust speed)